Hourly Weather Roundup
Issued by NWS Central Illinois

Home | Current Version | Previous Version | Text Only | Print | Product List | Glossary On
Versions: 1 2 3 4 5 6 7 8 9 10 11 12 13 14 15 16 17 18 19 20 21 22 23 24 25 26 27 28 29 30 31 32 33 34 35 36 37 38 39 40 41 42 43 44 45 46 47 48 49 50
000
NZUS43 KILX 011810
HWRILX

AREA WEATHER ROUNDUP
NATIONAL WEATHER SERVICE, LINCOLN IL
100 PM CDT WED OCT 01 2014


CITY           SKY/WX    TMP DP  RH WIND       PRES   REMARKS
BLOOMINGTON    SUNNY     78  61  55 S12         N/A
6HR MIN TEMP:  50; 6HR MAX TEMP:  78;

CHAMPAIGN      NOT AVBL
DECATUR        FAIR      79  58  48 S9        29.94F HX  80
6HR MIN TEMP:  52; 6HR MAX TEMP:  79;

FLORA          MOSUNNY   82  57  42 S7        29.94F HX  82
6HR MIN TEMP:  53; 6HR MAX TEMP:  83;

GALESBURG      FAIR      69  57  64 SE7       29.87F
JACKSONVILLE   FAIR      83  61  47 S7        29.88F HX  84
6HR MIN TEMP:  53; 6HR MAX TEMP:  83;

LACON          FAIR      76  58  54 S6        29.90F
6HR MIN TEMP:  48; 6HR MAX TEMP:  76;

LAWRENCEVILLE  MOSUNNY   82  60  47 S7        29.95F HX  82
6HR MIN TEMP:  53; 6HR MAX TEMP:  82;

LITCHFIELD     FAIR      81  58  46 S12G17    29.90F HX  81
$$


CITY           SKY/WX    TMP DP  RH WIND       PRES   REMARKS
LINCOLN        FAIR      81  57  43 S5        29.89F HX  81
6HR MIN TEMP:  53; 6HR MAX TEMP:  82;

MACOMB         FAIR      69  57  65 S8        29.89F
MATTOON        FAIR      79  59  50 VRB6      29.94F HX  80
6HR MIN TEMP:  52; 6HR MAX TEMP:  79;

MT CARMEL AP   SUNNY     84  55  37 S8        29.95F HX  83
OLNEY-NOBLE AP FAIR      81  59  47 SE5       29.94F HX  81
PARIS          MOSUNNY   79  58  49 SE6       29.97F HX  80
6HR MIN TEMP:  49; 6HR MAX TEMP:  79;

PEORIA         FAIR      77  59  53 SE8       29.91F
6HR MIN TEMP:  54; 6HR MAX TEMP:  77;

PONTIAC        FAIR      79  57  47 E7        29.94F HX  80
RANTOUL        SUNNY     79  54  42 SE7G16    29.96F
6HR MIN TEMP:  50; 6HR MAX TEMP:  79;

ROBINSON       MOSUNNY   81  63  53 SE5       29.96F HX  82
6HR MIN TEMP:  52; 6HR MAX TEMP:  81;

SPRINGFIELD    FAIR      81  60  48 SE7       29.90F HX  82
6HR MIN TEMP:  53; 6HR MAX TEMP:  81;

TAYLORVILLE    FAIR      81  59  47 S12       29.91F HX  81
$$

...REGIONAL REPORTS...


CITY           SKY/WX    TMP DP  RH WIND       PRES   REMARKS
CHICAGO O`HARE MOSUNNY   65  49  56 S8        29.98F
KANKAKEE       SUNNY     71  55  56 SE6       29.98F
MOLINE         NOT AVBL
MOUNT VERNON   NOT AVBL
PITTSFIELD     LGT RAIN  72  63  74 NW3       29.89F
QUINCY         LGT RAIN  63  61  93 E9        29.86F FOG
ROCKFORD       CLOUDY    69  51  52 SE16      29.94F
$$


CITY           SKY/WX    TMP DP  RH WIND       PRES   REMARKS
BURLINGTON     LGT RAIN  64  59  83 SE7       29.85F
CEDAR RAPIDS   MOSUNNY   61  55  82 S10       29.83S
DES MOINES     CLOUDY    69  63  81 S10       29.78F
KIRKSVILLE     CLOUDY    65  63  93 SE10      29.85F FOG
OTTUMWA        PTSUNNY   63  61  93 S10G17    29.81F FOG
ST LOUIS       PTSUNNY   83  61  47 S10       29.89F HX  83
$$


CITY           SKY/WX    TMP DP  RH WIND       PRES   REMARKS
TERRE HAUTE    SUNNY     77  58  51 CALM      29.97F
EVANSVILLE     SUNNY     83  57  41 SW6       29.95F HX  82
INDIANAPOLIS   PTSUNNY   70  54  56 VRB7      30.00F
LAFAYETTE      MOSUNNY   69  55  60 SE7       29.99F
MADISON        PTSUNNY   66  50  56 SE18      29.91F
MILWAUKEE      MOSUNNY   61  50  67 SE20      29.99F
$$





USA.gov is the U.S. government's official web portal to all federal, state and local government web resources and services.